CW9127 Weather Reports


Display with metric or nautical units.
time (UTC)temp
F
wind
direction
speed
MPH
gust
MPH
rain 1hr
in
rain 24hr
in
rain mn
in
humidity
%
barometer
mb
20260504081318 48 0.0 0.0 0.00 0.00 0.00 79 1015.9
20260504080318 48 0.0 0.0 0.00 0.00 0.00 78 1016.0
20260504070317 50 0.0 0.0 0.00 0.00 0.00 74 1016.5
20260504050317 48 0.0 0.0 0.00 0.00 0.00 80 1017.2
20260504045318 48 225 1.0 3.0 0.00 0.00 0.00 80 1017.1
20260504044317 48 0.0 0.0 0.00 0.00 0.00 80 1017.2
20260504043357 49 0.0 0.0 0.00 0.00 0.00 79 1017.3
20260504042317 49 0.0 0.0 0.00 0.00 0.00 78 1017.2
20260504041317 50 0.0 0.0 0.00 0.00 0.00 76 1017.2
20260504040317 50 0.0 0.0 0.00 0.00 0.00 74 1017.2
20260504035317 51 0.0 0.0 0.00 0.00 0.00 73 1017.2
20260504034316 51 0.0 0.0 0.00 0.00 0.00 72 1017.2
20260504033317 51 0.0 0.0 0.00 0.00 0.00 71 1017.4
20260504032317 52 0.0 0.0 0.00 0.00 0.00 70 1017.4
20260504031317 52 0.0 0.0 0.00 0.00 0.00 70 1017.5
20260504030337 52 0.0 0.0 0.00 0.00 0.00 70 1017.6
20260504025337 52 0.0 0.0 0.00 0.00 0.00 71 1017.5
20260504024316 52 0.0 0.0 0.00 0.00 0.00 71 1017.5
20260504023317 52 0.0 0.0 0.00 0.00 0.00 71 1017.6
20260504022316 52 0.0 0.0 0.00 0.00 0.00 72 1017.4
20260504021359 53 0.0 0.0 0.00 0.00 0.00 70 1017.5
20260504020316 53 0.0 0.0 0.00 0.00 0.00 70 1017.4
20260504015337 54 0.0 0.0 0.00 0.00 0.00 68 1017.3
20260504014336 55 0.0 0.0 0.00 0.00 0.00 67 1017.2
20260504013316 55 0.0 0.0 0.00 0.00 0.00 66 1017.1
20260504012316 56 0.0 0.0 0.00 0.00 0.00 63 1017.2
20260504011316 57 0.0 0.0 0.00 0.00 0.00 61 1017.0
20260504010316 58 0.0 0.0 0.00 0.00 0.00 59 1016.9
20260504005316 59 0.0 0.0 0.00 0.00 0.00 57 1016.8
20260504004318 60 0.0 0.0 0.00 0.00 0.00 54 1016.7
20260504003317 61 0.0 0.0 0.00 0.00 0.00 53 1016.7
20260504002316 62 0.0 0.0 0.00 0.00 0.00 52 1016.8
20260504001319 63 0.0 0.0 0.00 0.00 0.00 50 1016.8
20260504000316 64 0.0 2.0 0.00 0.00 0.00 48 1016.9
20260503235316 65 248 1.0 4.0 0.00 0.00 0.00 47 1016.7
20260503234318 65 0.0 1.0 0.00 0.00 0.00 47 1017.0
20260503233318 66 293 1.0 2.0 0.00 0.00 0.00 48 1017.1
20260503232319 66 293 2.0 5.0 0.00 0.00 0.00 45 1017.2
20260503231319 66 248 1.0 2.0 0.00 0.00 0.00 45 1017.3
20260503230318 66 225 1.0 3.0 0.00 0.00 0.00 45 1017.3
20260503225318 66 270 2.0 2.0 0.00 0.00 0.00 47 1017.5
20260503224319 66 180 2.0 3.0 0.00 0.00 0.00 45 1017.5
20260503223317 67 270 5.0 9.0 0.00 0.00 0.00 45 1017.5
20260503222320 66 203 1.0 4.0 0.00 0.00 0.00 43 1017.5
20260503221317 67 225 5.0 9.0 0.00 0.00 0.00 43 1017.5
20260503220358 67 225 4.0 6.0 0.00 0.00 0.00 42 1017.6
20260503215319 67 338 2.0 4.0 0.00 0.00 0.00 41 1017.7
20260503214339 67 248 3.0 8.0 0.00 0.00 0.00 43 1017.7
20260503213318 67 203 7.0 13.0 0.00 0.00 0.00 41 1017.8
20260503212318 67 203 2.0 4.0 0.00 0.00 0.00 44 1018.0
20260503211318 67 180 6.0 11.0 0.00 0.00 0.00 42 1018.0
20260503210318 67 270 1.0 3.0 0.00 0.00 0.00 43 1018.1
20260503205317 67 0.0 1.0 0.00 0.00 0.00 43 1018.2
20260503204317 66 225 4.0 9.0 0.00 0.00 0.00 44 1018.3
20260503203358 66 225 1.0 3.0 0.00 0.00 0.00 43 1018.7
20260503202317 66 203 1.0 3.0 0.00 0.00 0.00 45 1018.6
20260503201317 66 203 3.0 5.0 0.00 0.00 0.00 44 1018.9
20260503200337 65 203 3.0 4.0 0.00 0.00 0.00 42 1019.1
20260503195318 65 248 3.0 5.0 0.00 0.00 0.00 44 1019.4
20260503194317 65 203 3.0 6.0 0.00 0.00 0.00 44 1019.7
20260503193317 65 293 2.0 4.0 0.00 0.00 0.00 42 1019.7
20260503192317 65 180 3.0 6.0 0.00 0.00 0.00 42 1019.7
20260503191317 65 225 3.0 6.0 0.00 0.00 0.00 45 1020.2
20260503190317 64 203 4.0 7.0 0.00 0.00 0.00 42 1020.2
20260503185317 64 293 1.0 3.0 0.00 0.00 0.00 43 1020.4
20260503184357 64 270 3.0 6.0 0.00 0.00 0.00 45 1020.6
20260503183317 64 248 2.0 5.0 0.00 0.00 0.00 44 1020.6
20260503182317 64 0.0 1.0 0.00 0.00 0.00 43 1020.5
20260503181337 63 203 5.0 9.0 0.00 0.00 0.00 47 1020.7
20260503180318 63 315 2.0 3.0 0.00 0.00 0.00 47 1020.7
20260503175318 62 0.0 2.0 0.00 0.00 0.00 46 1020.9
20260503174337 61 113 1.0 4.0 0.00 0.00 0.00 51 1021.0
20260503173317 62 248 5.0 8.0 0.00 0.00 0.00 47 1021.2
20260503172317 61 270 4.0 7.0 0.00 0.00 0.00 48 1021.4
20260503171317 61 0.0 2.0 0.00 0.00 0.00 51 1021.4
20260503170318 61 248 5.0 7.0 0.00 0.00 0.00 51 1021.5
20260503150317 57 0.0 2.0 0.00 0.00 0.00 53 1022.2
20260503131316 50 68 1.0 3.0 0.00 0.00 0.00 82 1021.8
20260503130316 50 68 1.0 3.0 0.00 0.00 0.00 84 1021.8
20260503110318 39 0.0 0.0 0.00 0.00 0.00 91 1020.5
20260503090318 42 0.0 0.0 0.00 0.00 0.00 90 1020.0